This demonstration page uses our WeatherBlox Daily Observations layout. Learn more.

Left ArrowRight Arrow

44.8408, -93.29828

Hourly Observations for March 28, 2016

Temp ( °F °C ) Dew Point ( °F °C ) Humidity (%) Winds ( mph kmh ) Pressure ( in mb ) Visibility ( mi km ) Precip ( " mm )
12:53 am 00:53 Clear 32 0 28 -2.2 85 85 WSW 3 6 30.07 1018 10 16 0.00 0.00
1:53 am 01:53 Clear 32 0 27 -2.8 82 82 Calm 30.07 1018 9 14 0.00 0.00
2:53 am 02:53 Mostly Clear 31 -0.6 28 -2.2 89 89 Calm 30.07 1018 8 13 0.00 0.00
3:53 am 03:53 Mostly Clear 31 -0.6 28 -2.2 89 89 S 3 6 30.08 1019 8 13 0.00 0.00
4:20 am 04:20 Partly Cloudy with Patchy Fog 30 -1 28 -2 93 93 Calm 30.09 1019 8 13 0.00 0.00
4:53 am 04:53 Partly Cloudy with Patchy Fog 30 -1.1 27 -2.8 88 88 S 3 6 30.08 1019 8 13 0.00 0.00
5:04 am 05:04 Partly Cloudy with Patchy Fog 30 -1 28 -2 93 93 S 3 6 30.09 1019 8 13 0.00 0.00
5:29 am 05:29 Partly Cloudy with Patchy Fog 28 -2.2 26 -3.3 92 92 Calm 30.09 1019 8 13 0.00 0.00
5:53 am 05:53 Mostly Cloudy with Patchy Fog 30 -1.1 27 -2.8 88 88 Calm 30.09 1019 8 13 0.00 0.00
6:53 am 06:53 Cloudy 31 -0.6 29 -1.7 92 92 Calm 30.11 1020 9 14 0.00 0.00
7:53 am 07:53 Mostly Cloudy 34 1.1 29 -1.7 82 82 S 3 6 30.11 1020 10 16 0.00 0.00
8:53 am 08:53 Mostly Sunny 38 3.3 32 0 79 79 Calm 30.11 1020 10 16 0.00 0.00
9:53 am 09:53 Mostly Cloudy 42 5.6 31 -0.6 65 65 SSW 6 9 30.12 1020 10 16 0.00 0.00
10:53 am 10:53 Partly Cloudy 46 7.8 30 -1.1 54 54 SW 5 7 30.14 1021 10 16 0.00 0.00
11:53 am 11:53 Mostly Cloudy 48 8.9 30 -1.1 50 50 SSW 6 9 30.14 1021 10 16 0.00 0.00
12:53 pm 12:53 Mostly Cloudy 51 10.6 29 -1.7 43 43 VRB 5 7 30.14 1021 10 16 0.00 0.00
1:53 pm 13:53 Mostly Sunny 53 11.7 27 -2.8 37 37 VRB 3 6 30.13 1020 10 16 0.00 0.00
2:53 pm 14:53 Mostly Sunny 57 13.9 28 -2.2 33 33 SSE 9 15 30.11 1020 10 16 0.00 0.00
3:53 pm 15:53 Mostly Sunny 57 13.9 29 -1.7 34 34 S 6 9 30.10 1019 10 16 0.00 0.00
4:53 pm 16:53 Mostly Sunny 58 14.4 29 -1.7 33 33 SSW 9 15 30.09 1019 10 16 0.00 0.00
5:53 pm 17:53 Mostly Sunny 58 14.4 30 -1.1 35 35 SW 9 15 30.09 1019 10 16 0.00 0.00
6:53 pm 18:53 Mostly Sunny 56 13.3 31 -0.6 39 39 SSE 9 15 30.10 1019 10 16 0.00 0.00
7:53 pm 19:53 Partly Cloudy 56 13.3 30 -1.1 37 37 S 6 9 30.11 1020 10 16 0.00 0.00
8:53 pm 20:53 Partly Cloudy 51 10.6 33 0.6 50 50 SE 6 9 30.14 1021 10 16 0.00 0.00
9:53 pm 21:53 Mostly Clear 49 9.4 34 1.1 56 56 SE 7 11 30.14 1021 10 16 0.00 0.00
10:53 pm 22:53 Mostly Clear 46 7.8 34 1.1 63 63 SE 7 11 30.14 1021 10 16 0.00 0.00
11:53 pm 23:53 Mostly Clear 46 7.8 34 1.1 63 63 SE 7 11 30.15 1021 10 16 0.00 0.00

Powered by AerisWeather